Simultaneous Nadir Overpasses (SNOs) Predictions

Prediction of SNOs between METOP-A and TERRA Satellite Orbit:

Table of predicted SNOs for the next 14.0 days since TLE Epoch: 8/31/2014
Index Date (METOP-A) Time (METOP-A) Lat,Lon (METOP-A) SZA (METOP-A ) Date (TERRA) Time (TERRA) Lat,Lon (TERRA) SZA (TERRA ) Distance(km) Time Diff (sec)
1 08/31/2014 04:13:50 81.29, 164.07 75.47 08/31/2014 04:12:57 81.30, 163.97 75.43 1.89 53
2 09/02/2014 22:57:34 -81.28, 62.25 103.62 09/02/2014 22:57:46 -81.28, 62.40 103.60 2.48 12
3 09/02/2014 23:48:13 81.29,-129.74 76.48 09/02/2014 23:47:12 81.29,-129.84 76.44 1.86 61
4 09/05/2014 18:31:57 -81.28, 128.81 102.54 09/05/2014 18:32:01 -81.28, 128.83 102.54 0.60 4
5 09/05/2014 19:22:37 81.29, -63.57 77.51 09/05/2014 19:21:27 81.28, -63.45 77.49 2.13 70
6 09/08/2014 13:15:40 81.28, 27.67 78.50 09/08/2014 13:16:48 81.29, 27.85 78.55 3.23 68
7 09/08/2014 14:06:20 -81.29,-164.66 101.45 09/08/2014 14:06:15 -81.29,-164.54 101.44 1.98 5
8 09/11/2014 08:50:02 81.28, 94.19 79.59 09/11/2014 08:51:01 81.29, 94.28 79.64 1.87 59




NCC Satellite Simultaneous Nadir Overpasses (SNOs) Prediction Service
